[[{"header":{"parameterUnit":"m.s-1","parameterCategory":1,"la1":30.2991,"la2":30.254,"lo1":-89.0895,"lo2":-89.0444,"dy":0.0017,"dx":0.0017,"nx":28,"ny":28,"refTime":"2023-04-20T21:00:00:Z","depth":0,"parameterNumber":2,"parameterNumberName":"U-component_of_WINDS"},"data":[0,0,0,0,0,0,0,0,0,0,0,0,0,0,0,0,0,0,0,0,0,0,0,0,0,0,0,0,0,0,0,0,0,0,0,0,0,0,0,0,0,0,0,0,0,0,0,0,0,0,0,0,0,0,0,0,0,0,-2.6762,-2.6761,0,-2.6709,-2.6708,-2.6707,-2.6649,-2.6648,-2.6647,-2.6646,-2.659,-2.659,-2.6589,0,0,0,0,0,0,0,0,0,0,0,0,0,-2.6811,-2.681,-2.6762,-2.6761,-2.676,-2.6709,-2.6708,-2.6707,-2.6649,-2.6648,-2.6647,-2.6646,-2.659,-2.659,-2.6589,0,0,0,0,0,0,0,0,0,0,0,0,0,-2.6777,-2.681,-2.6762,-2.6725,-2.6721,-2.6709,-2.6708,-2.6707,-2.6649,-2.6648,-2.6647,-2.6645,-2.6591,-2.659,-2.6589,-2.6608,0,0,-2.6586,-2.6585,0,0,0,0,0,0,0,0,-2.6779,-2.6775,-2.6731,-2.6727,-2.6723,-2.6684,-2.6705,-2.6674,-2.6649,-2.6676,-2.6646,-2.6645,-2.6622,-2.6619,-2.6611,-2.6605,-2.6603,-2.6585,-2.6585,-2.6584,-2.6584,0,0,0,0,0,0,0,-2.6781,-2.6777,-2.6741,-2.673,-2.6726,-2.6711,-2.6704,-2.6698,-2.6657,-2.6674,-2.667,-2.6664,-2.662,-2.6613,-2.661,-2.6602,-2.6585,-2.6585,-2.6584,-2.6583,-2.6608,-2.661,0,0,0,0,0,0,-2.6789,-2.6779,-2.6742,-2.6739,-2.6748,-2.6711,-2.6704,-2.6698,-2.6657,-2.665,-2.6665,-2.6662,-2.6615,-2.6611,-2.6608,-2.6627,-2.6584,-2.6583,-2.6583,-2.6607,-2.6609,-2.661,0,0,0,0,0,0,-2.679,-2.6786,-2.6744,-2.6758,-2.6751,-2.6711,-2.6705,-2.6697,-2.669,-2.6651,-2.6643,-2.6666,-2.6614,-2.6609,-2.6608,-2.6624,-2.6583,-2.6582,-2.6606,-2.6608,-2.6609,-2.6667,0,0,0,0,0,0,-2.6792,-2.6787,-2.6795,-2.6758,-2.6751,-2.6747,-2.6706,-2.6697,-2.6689,-2.6683,-2.6649,-2.6642,-2.6612,-2.661,-2.6607,-2.6622,-2.6581,-2.6604,-2.6606,-2.6609,-2.6663,-2.6671,-2.6677,0,0,0,0,0,-2.6794,-2.6813,-2.6795,-2.6791,-2.6759,-2.6748,-2.6743,-2.671,-2.669,-2.6697,-2.6671,-2.6643,-2.6623,-2.6611,-2.6607,-2.6622,-2.6603,-2.6606,-2.6609,-2.666,-2.6669,-2.6677,0,0,0,0,0,0,-2.6851,-2.6807,-2.6787,-2.6795,-2.6776,-2.6738,-2.6745,-2.672,-2.6706,-2.6701,-2.666,-2.6652,-2.6657,-2.6639,-2.6626,-2.6638,-2.6609,-2.6611,-2.665,-2.6658,-2.6664,-2.6668,-2.658,0,0,0,0,0,-2.6865,-2.6859,-2.6821,-2.6831,-2.6823,-2.6786,-2.678,-2.6756,-2.6734,-2.6725,-2.6699,-2.6679,-2.6668,-2.6662,-2.6649,-2.666,-2.6652,-2.6669,-2.6675,-2.6681,-2.6684,-2.6688,-2.6695,-2.662,-2.662,-2.6619,0,0,-2.6892,-2.6868,-2.6867,-2.6842,-2.6824,-2.682,-2.6779,-2.6776,-2.6772,-2.6724,-2.6722,-2.6703,-2.6677,-2.6682,-2.6683,-2.6668,-2.6703,-2.6685,-2.669,-2.6689,-2.6692,-2.6699,-2.6706,-2.6622,-2.6621,-2.6621,0,0,-2.694,-2.6921,-2.6928,-2.6911,-2.6885,-2.686,-2.6862,-2.6828,-2.6813,-2.6811,-2.6775,-2.6769,-2.6751,-2.6734,-2.6723,-2.6765,-2.6738,-2.6762,-2.6797,-2.6802,-2.6808,-2.6813,-2.6828,-2.6834,-2.6765,-2.6765,-2.6765,0,-2.6978,-2.697,-2.6934,-2.6933,-2.6923,-2.688,-2.6886,-2.6871,-2.6843,-2.6836,-2.6819,-2.6796,-2.6776,-2.6777,-2.6787,-2.6779,-2.678,-2.6766,-2.681,-2.6815,-2.6819,-2.6833,-2.6839,-2.6768,-2.6768,-2.6767,-2.6767,0,-2.7018,-2.7013,-2.7021,-2.6995,-2.6985,-2.6988,-2.6952,-2.6947,-2.6924,-2.6901,-2.6899,-2.6873,-2.6855,-2.6853,-2.683,-2.685,-2.6841,-2.6818,-2.6788,-2.683,-2.6842,-2.6847,-2.6772,-2.6771,-2.677,-2.677,0,0,-2.71,-2.7054,-2.7058,-2.7046,-2.7014,-2.7009,-2.7009,-2.6992,-2.6988,-2.697,-2.6969,-2.6955,-2.6933,-2.692,-2.6895,-2.6899,-2.6934,-2.6875,-2.6873,-2.6887,-2.6955,-2.6974,-2.698,-2.6916,-2.6917,-2.6917,-2.6957,0,-2.7143,-2.7142,-2.711,-2.7117,-2.7112,-2.7071,-2.7071,-2.7051,-2.703,-2.7022,-2.6998,-2.6989,-2.696,-2.6953,-2.6955,-2.6929,-2.6947,-2.6926,-2.6914,-2.6914,-2.6923,-2.6987,-2.7006,-2.7045,-2.6962,-2.6963,-2.6963,0,-2.7193,-2.7178,-2.7185,-2.7153,-2.7149,-2.715,-2.7132,-2.7125,-2.7101,-2.7085,-2.7072,-2.7043,-2.704,-2.7012,-2.7008,-2.6994,-2.6987,-2.6974,-2.6975,-2.6973,-2.6942,-2.6986,-2.7057,-2.7063,-2.6971,-2.697,-2.6969,0,-2.7253,-2.7234,-2.7236,-2.7227,-2.7189,-2.7191,-2.7175,-2.715,-2.7142,-2.7125,-2.712,-2.7103,-2.7094,-2.7082,-2.7049,-2.7031,-2.7049,-2.7017,-2.7035,-2.7036,-2.7041,-2.7041,-2.7111,-2.7036,-2.7036,-2.7036,-2.7036,0,-2.7304,-2.731,-2.7263,-2.7264,-2.727,-2.7232,-2.7239,-2.7219,-2.7197,-2.7193,-2.7157,-2.7154,-2.7111,-2.7103,-2.7077,-2.7078,-2.7074,-2.706,-2.7054,-2.7064,-2.7066,-2.7059,-2.7056,-2.7037,-2.7037,-2.7037,-2.7036,0,-2.7373,-2.7341,-2.7341,-2.7305,-2.7296,-2.7302,-2.7271,-2.727,-2.7247,-2.7243,-2.7239,-2.7202,-2.7191,-2.7157,-2.7137,-2.712,-2.7128,-2.7115,-2.7136,-2.7132,-2.7151,-2.715,-2.722,-2.7227,-2.7148,-2.7149,-2.7149,0,-2.7408,-2.7411,-2.7376,-2.7372,-2.7358,-2.735,-2.7342,-2.7305,-2.7297,-2.7271,-2.7273,-2.7259,-2.7246,-2.723,-2.7201,-2.7186,-2.7172,-2.7197,-2.7169,-2.718,-2.7172,-2.7173,-2.7173,-2.7204,-2.7205,-2.7206,-2.7206,0,-2.7473,-2.7457,-2.7447,-2.7431,-2.7422,-2.7407,-2.7391,-2.7389,-2.7347,-2.7341,-2.7329,-2.7319,-2.7299,-2.7286,-2.7266,-2.7248,-2.7221,-2.7215,-2.7219,-2.7229,-2.7242,-2.7236,-2.7153,-2.7214,-2.7213,-2.7213,-2.7212,-2.7212,-2.7526,-2.7527,-2.7503,-2.7493,-2.7476,-2.7462,-2.7459,-2.7436,-2.7426,-2.7407,-2.7385,-2.7376,-2.7352,-2.7322,-2.7307,-2.7299,-2.7284,-2.7289,-2.729,-2.7292,-2.7297,-2.7243,-2.7295,-2.7295,-2.7295,-2.7295,-2.7294,0,-2.759,-2.7572,-2.7563,-2.7541,-2.7533,-2.7507,-2.7487,-2.7482,-2.7475,-2.7455,-2.7443,-2.743,-2.7416,-2.7386,-2.737,-2.7369,-2.7356,-2.7366,-2.7366,-2.7363,-2.7311,-2.731,-2.7377,-2.7377,-2.7377,-2.7377,-2.7377,-2.7377,-2.7622,-2.7623,-2.7605,-2.7598,-2.7579,-2.7571,-2.7562,-2.7548,-2.7532,-2.7519,-2.7508,-2.7489,-2.7464,-2.7446,-2.7432,-2.7424,-2.742,-2.7434,-2.7421,-2.7374,-2.7366,-2.7359,-2.7357,-2.7433,-2.7434,-2.7473,-2.7474,-2.7474]},{"header":{"parameterUnit":"m.s-1","parameterCategory":1,"la1":30.2991,"la2":30.254,"lo1":-89.0895,"lo2":-89.0444,"dy":0.0017,"dx":0.0017,"nx":28,"ny":28,"refTime":"2023-04-20T21:00:00:Z","depth":0,"parameterNumber":3,"parameterNumberName":"V-component_of_WINDS"},"data":[0,0,0,0,0,0,0,0,0,0,0,0,0,0,0,0,0,0,0,0,0,0,0,0,0,0,0,0,0,0,0,0,0,0,0,0,0,0,0,0,0,0,0,0,0,0,0,0,0,0,0,0,0,0,0,0,0,0,-5.313,-5.3131,0,-5.3179,-5.318,-5.318,-5.3153,-5.3151,-5.315,-5.3149,-5.3193,-5.3196,-5.3198,0,0,0,0,0,0,0,0,0,0,0,0,0,-5.3008,-5.3011,-5.313,-5.3131,-5.3131,-5.3179,-5.318,-5.318,-5.3153,-5.3151,-5.315,-5.3148,-5.3192,-5.3195,-5.3198,0,0,0,0,0,0,0,0,0,0,0,0,0,-5.3059,-5.3011,-5.313,-5.3124,-5.3124,-5.3179,-5.318,-5.318,-5.3153,-5.3151,-5.3149,-5.3147,-5.3191,-5.3195,-5.3199,-5.3261,0,0,-5.321,-5.3211,0,0,0,0,0,0,0,0,-5.3057,-5.3064,-5.3124,-5.3124,-5.3124,-5.3158,-5.3153,-5.3207,-5.3154,-5.3142,-5.3149,-5.3146,-5.3183,-5.3187,-5.32,-5.3263,-5.3265,-5.321,-5.3212,-5.3214,-5.3215,0,0,0,0,0,0,0,-5.3053,-5.3062,-5.3149,-5.3125,-5.3125,-5.3117,-5.3122,-5.3163,-5.3173,-5.3143,-5.3141,-5.3147,-5.3182,-5.3197,-5.3201,-5.3266,-5.321,-5.3213,-5.3215,-5.3217,-5.3384,-5.3386,0,0,0,0,0,0,-5.3051,-5.3059,-5.3148,-5.3151,-5.3085,-5.3121,-5.3126,-5.3149,-5.3172,-5.3174,-5.3149,-5.3146,-5.3192,-5.3197,-5.3203,-5.3279,-5.3214,-5.3217,-5.3219,-5.3381,-5.3384,-5.3387,0,0,0,0,0,0,-5.3048,-5.3059,-5.3146,-5.3104,-5.3115,-5.3125,-5.3151,-5.3151,-5.3166,-5.3177,-5.3178,-5.3163,-5.319,-5.3197,-5.3248,-5.328,-5.3219,-5.3222,-5.3379,-5.3382,-5.3385,-5.3431,0,0,0,0,0,0,-5.3045,-5.3058,-5.3083,-5.3105,-5.3117,-5.3192,-5.3153,-5.3153,-5.3173,-5.3169,-5.319,-5.3191,-5.3189,-5.3242,-5.3251,-5.3284,-5.3225,-5.3376,-5.338,-5.3384,-5.3427,-5.3435,-5.3443,0,0,0,0,0,-5.3041,-5.3092,-5.3085,-5.3095,-5.3149,-5.3193,-5.32,-5.3198,-5.3175,-5.32,-5.3207,-5.3191,-5.3275,-5.3248,-5.3257,-5.3292,-5.3374,-5.3379,-5.3384,-5.3423,-5.3434,-5.3443,0,0,0,0,0,0,-5.3071,-5.3095,-5.3087,-5.3148,-5.3169,-5.3189,-5.322,-5.3209,-5.3236,-5.3231,-5.3226,-5.3231,-5.3283,-5.3292,-5.3261,-5.3354,-5.3321,-5.3328,-5.3347,-5.3357,-5.3365,-5.3362,-5.3228,0,0,0,0,0,-5.3086,-5.3122,-5.314,-5.3191,-5.3203,-5.321,-5.3229,-5.3226,-5.3247,-5.3255,-5.3266,-5.3286,-5.3317,-5.3337,-5.3366,-5.3427,-5.3432,-5.3455,-5.3464,-5.347,-5.3477,-5.3511,-5.3522,-5.3403,-5.3403,-5.3403,0,0,-5.3115,-5.3132,-5.3155,-5.3198,-5.3214,-5.3251,-5.3217,-5.3256,-5.3283,-5.326,-5.331,-5.3318,-5.334,-5.3396,-5.3421,-5.3405,-5.3511,-5.3477,-5.3482,-5.3485,-5.3518,-5.3529,-5.3539,-5.3407,-5.3406,-5.3405,0,0,-5.3187,-5.3203,-5.325,-5.3267,-5.3293,-5.3298,-5.3309,-5.333,-5.3336,-5.3386,-5.337,-5.34,-5.3453,-5.347,-5.3485,-5.3565,-5.3551,-5.3574,-5.3617,-5.365,-5.366,-5.3668,-5.3698,-5.3708,-5.358,-5.358,-5.358,0,-5.3219,-5.3275,-5.3274,-5.3316,-5.3335,-5.3319,-5.3365,-5.3381,-5.3414,-5.3427,-5.3409,-5.3476,-5.3489,-5.355,-5.357,-5.3582,-5.3594,-5.3572,-5.3659,-5.3667,-5.3675,-5.3703,-5.3714,-5.3583,-5.3583,-5.3582,-5.3582,0,-5.3314,-5.3353,-5.3387,-5.3423,-5.3446,-5.3489,-5.3493,-5.3517,-5.3511,-5.3517,-5.3568,-5.3583,-5.3616,-5.363,-5.3624,-5.369,-5.3679,-5.366,-5.3626,-5.3689,-5.3716,-5.3726,-5.3587,-5.3586,-5.3585,-5.3584,0,0,-5.3407,-5.3443,-5.3456,-5.3472,-5.35,-5.3529,-5.3571,-5.3606,-5.3626,-5.3649,-5.3685,-5.373,-5.3714,-5.3731,-5.3727,-5.3756,-5.382,-5.3733,-5.3733,-5.375,-5.3895,-5.391,-5.3923,-5.381,-5.3812,-5.3814,-5.3893,0,-5.3482,-5.356,-5.356,-5.3631,-5.3667,-5.3652,-5.3689,-5.3709,-5.3716,-5.3746,-5.3752,-5.3786,-5.376,-5.377,-5.3799,-5.3806,-5.3849,-5.38,-5.3843,-5.3844,-5.3839,-5.3936,-5.3953,-5.4027,-5.3903,-5.3905,-5.3906,0,-5.3581,-5.3611,-5.3685,-5.371,-5.3725,-5.3758,-5.379,-5.382,-5.3842,-5.3845,-5.3865,-5.3857,-5.3899,-5.3863,-5.3921,-5.3888,-5.3905,-5.3911,-5.3914,-5.3919,-5.388,-5.3945,-5.4051,-5.4062,-5.3922,-5.3921,-5.392,0,-5.3643,-5.3701,-5.3754,-5.3768,-5.3797,-5.3822,-5.3834,-5.3855,-5.3876,-5.3903,-5.3916,-5.3947,-5.3964,-5.3987,-5.3987,-5.3961,-5.4046,-5.401,-5.4049,-5.4049,-5.4068,-5.4067,-5.418,-5.4077,-5.4077,-5.4077,-5.4076,0,-5.3728,-5.3774,-5.3783,-5.3816,-5.3867,-5.3867,-5.3917,-5.3927,-5.3946,-5.398,-5.3967,-5.3998,-5.3995,-5.4026,-5.4026,-5.4074,-5.4081,-5.4085,-5.4084,-5.4087,-5.4087,-5.4099,-5.4094,-5.408,-5.4079,-5.4078,-5.4078,0,-5.3807,-5.3814,-5.3871,-5.3895,-5.3902,-5.3939,-5.3958,-5.3989,-5.3995,-5.4037,-5.4047,-5.4055,-5.4092,-5.4094,-5.4134,-5.4134,-5.4194,-5.4186,-5.4187,-5.4186,-5.4226,-5.4223,-5.4351,-5.4368,-5.4253,-5.4254,-5.4255,0,-5.3861,-5.3897,-5.3926,-5.3949,-5.3964,-5.4,-5.4022,-5.4022,-5.4045,-5.4074,-5.4101,-5.4137,-5.4165,-5.4223,-5.4232,-5.4263,-5.4258,-5.4301,-5.4262,-5.4264,-5.426,-5.4259,-5.4263,-5.4308,-5.431,-5.4311,-5.4311,0,-5.3957,-5.396,-5.3993,-5.4029,-5.4056,-5.4083,-5.4108,-5.4127,-5.413,-5.4157,-5.4195,-5.4217,-5.426,-5.4296,-5.4326,-5.4337,-5.4325,-5.4323,-5.4334,-5.4338,-5.4338,-5.434,-5.4209,-5.4321,-5.432,-5.4319,-5.4319,-5.4318,-5.4026,-5.4059,-5.4085,-5.4123,-5.4142,-5.4167,-5.4197,-5.4208,-5.424,-5.4278,-5.4275,-5.4317,-5.4339,-5.4379,-5.4393,-5.4425,-5.441,-5.4426,-5.443,-5.4434,-5.4439,-5.4332,-5.443,-5.443,-5.443,-5.443,-5.4429,0,-5.4123,-5.414,-5.4175,-5.4213,-5.4242,-5.423,-5.4258,-5.4283,-5.4321,-5.4344,-5.4373,-5.4417,-5.4451,-5.4463,-5.4497,-5.452,-5.4515,-5.4529,-5.4528,-5.4531,-5.445,-5.4438,-5.4532,-5.4532,-5.4532,-5.4532,-5.4532,-5.4532,-5.4178,-5.4232,-5.4238,-5.4301,-5.4317,-5.4361,-5.4378,-5.4399,-5.4418,-5.4469,-5.4498,-5.4506,-5.4525,-5.4559,-5.459,-5.4592,-5.4606,-5.4622,-5.4622,-5.4547,-5.4536,-5.4526,-5.4515,-5.4625,-5.4625,-5.4701,-5.4702,-5.4702]}]]